"datetime","# probes","# resolvers","can_ipv6","can_ipv6_prbs","can_tcp","can_tcp_prbs","can_tcp6","can_tcp6_prbs","does_ecs","does_ecs_prbs","does_flagday","does_flagday_prbs","does_rov4","does_rov4_prbs","does_rov6","does_rov6_prbs","does_qnamemin","doesnt_qnamemin","does_qnamemin_prbs","doesnt_qnamemin_prbs","does_nxdomain","doesnt_nxdomain","does_nxdomain_prbs","doesnt_nxdomain_prbs","has_ta_19036","hasnt_ta_19036","has_ta_19036_prbs","hasnt_ta_19036_prbs","has_ta_20326","hasnt_ta_20326","has_ta_20326_prbs","hasnt_ta_20326_prbs","can_rsamd5","cannot_rsamd5","broken_rsamd5","can_rsamd5_prbs","cannot_rsamd5_prbs","broken_rsamd5_prbs","can_dsa","cannot_dsa","broken_dsa","can_dsa_prbs","cannot_dsa_prbs","broken_dsa_prbs","can_rsasha1","cannot_rsasha1","broken_rsasha1","can_rsasha1_prbs","cannot_rsasha1_prbs","broken_rsasha1_prbs","can_dsansec3","cannot_dsansec3","broken_dsansec3","can_dsansec3_prbs","cannot_dsansec3_prbs","broken_dsansec3_prbs","can_rsansec3","cannot_rsansec3","broken_rsansec3","can_rsansec3_prbs","cannot_rsansec3_prbs","broken_rsansec3_prbs","can_rsasha256","cannot_rsasha256","broken_rsasha256","can_rsasha256_prbs","cannot_rsasha256_prbs","broken_rsasha256_prbs","can_rsasha512","cannot_rsasha512","broken_rsasha512","can_rsasha512_prbs","cannot_rsasha512_prbs","broken_rsasha512_prbs","can_eccgost","cannot_eccgost","broken_eccgost","can_eccgost_prbs","cannot_eccgost_prbs","broken_eccgost_prbs","can_ecdsa256","cannot_ecdsa256","broken_ecdsa256","can_ecdsa256_prbs","cannot_ecdsa256_prbs","broken_ecdsa256_prbs","can_ecdsa384","cannot_ecdsa384","broken_ecdsa384","can_ecdsa384_prbs","cannot_ecdsa384_prbs","broken_ecdsa384_prbs","can_ed25519","cannot_ed25519","broken_ed25519","can_ed25519_prbs","cannot_ed25519_prbs","broken_ed25519_prbs","can_ed448","cannot_ed448","broken_ed448","can_ed448_prbs","cannot_ed448_prbs","broken_ed448_prbs","can_gost","cannot_gost","broken_gost","can_gost_prbs","cannot_gost_prbs","broken_gost_prbs","can_sha384","cannot_sha384","broken_sha384","can_sha384_prbs","cannot_sha384_prbs","broken_sha384_prbs","is_internal","is_forwarding","is_external","is_internal_prbs","is_forwarding_prbs","is_external_prbs"
2017-06-20T23:59:34Z,17,22,19,15,22,17,18,14,1,7,0,0,0,0,0,0,0,22,0,17,0,22,0,17,0,0,0,0,0,0,0,0,2,19,1,3,14,7,3,19,0,4,16,0,4,18,0,8,13,0,3,19,0,4,16,0,4,18,0,8,13,0,4,18,0,8,13,0,4,18,0,8,13,0,2,20,0,3,17,0,4,18,0,8,13,0,4,18,0,8,13,0,0,22,0,0,17,0,0,22,0,0,17,0,3,19,0,7,14,0,4,18,0,8,13,0,16,1,5,12,4,9
2017-06-21T23:59:39Z,18,25,22,16,25,18,21,15,1,8,0,0,0,0,0,0,0,25,0,18,0,25,0,18,0,0,0,0,0,0,0,0,2,22,1,3,15,8,4,21,0,4,17,0,5,20,0,9,14,0,4,21,0,4,17,0,5,20,0,9,14,0,5,20,0,9,14,0,5,20,0,9,14,0,2,23,0,3,18,0,5,20,0,9,14,0,5,20,0,9,14,0,0,25,0,0,18,0,0,25,0,0,18,0,3,22,0,8,15,0,5,20,0,9,14,0,16,1,8,12,4,10
2017-06-22T23:59:38Z,18,25,22,16,25,18,21,16,1,8,0,0,0,0,0,0,0,25,0,18,0,25,0,18,0,0,0,0,0,0,0,0,2,21,2,3,15,8,3,22,0,4,17,0,5,20,0,9,14,0,3,22,0,4,17,0,5,20,0,9,14,0,5,20,0,9,14,0,5,20,0,9,14,0,2,23,0,3,18,0,5,20,0,9,14,0,5,20,0,9,14,0,0,25,0,0,18,0,0,25,0,0,18,0,4,21,0,8,15,0,5,20,0,9,14,0,16,2,7,12,4,10
2017-06-23T23:59:38Z,18,25,21,16,25,18,21,16,1,8,0,0,0,0,0,0,0,25,0,18,0,25,0,18,0,0,0,0,0,0,0,0,2,22,1,3,15,8,3,22,0,4,17,0,4,21,0,9,14,0,3,22,0,4,17,0,4,21,0,9,14,0,4,21,0,9,14,0,4,21,0,9,14,0,2,23,0,3,18,0,4,21,0,9,14,0,4,21,0,9,14,0,0,25,0,0,18,0,0,25,0,0,18,0,3,22,0,8,15,0,4,21,0,9,14,0,17,1,7,12,4,10
2017-06-24T23:59:39Z,18,26,22,16,26,18,21,15,1,8,0,0,0,0,0,0,0,26,1,18,0,26,0,18,0,0,0,0,0,0,0,0,2,23,1,3,15,8,4,22,0,4,17,0,5,21,0,9,14,0,4,22,0,4,17,0,5,21,0,9,14,0,5,21,0,9,14,0,5,21,0,9,14,0,2,24,0,3,18,0,5,21,0,9,14,0,5,21,0,9,14,0,0,26,0,0,18,0,0,26,0,0,18,0,3,23,0,8,15,0,5,21,0,9,14,0,17,1,8,12,4,10
2017-06-25T23:59:39Z,18,25,21,16,25,18,20,15,1,8,0,0,0,0,0,0,0,25,1,18,0,25,0,18,0,0,0,0,0,0,0,0,2,22,1,3,15,8,3,22,0,4,17,0,4,21,0,9,14,0,3,22,0,4,17,0,4,21,0,9,14,0,4,21,0,9,14,0,4,21,0,9,14,0,2,23,0,3,18,0,4,21,0,9,14,0,4,21,0,9,14,0,0,25,0,0,18,0,0,25,0,0,18,0,3,22,0,8,15,0,4,21,0,9,14,0,17,1,7,12,4,10
2017-06-26T23:59:40Z,18,26,22,16,26,18,21,15,1,8,0,0,0,0,0,0,0,26,0,18,0,26,0,18,0,0,0,0,0,0,0,0,2,23,1,3,15,8,3,23,0,4,17,0,4,22,0,9,14,0,3,23,0,4,17,0,4,22,0,9,14,0,4,22,0,9,14,0,4,22,0,9,14,0,2,24,0,3,18,0,4,22,0,9,14,0,4,22,0,9,14,0,0,26,0,0,18,0,0,26,0,0,18,0,3,23,0,8,15,0,4,22,0,9,14,0,17,1,8,12,4,10
2017-06-27T23:59:39Z,18,26,22,16,26,18,21,15,1,8,0,0,0,0,0,0,0,26,0,18,0,26,0,18,0,0,0,0,0,0,0,0,2,23,1,3,15,8,4,22,0,4,17,0,5,21,0,9,14,0,4,22,0,4,17,0,5,21,0,9,14,0,5,21,0,9,14,0,5,21,0,9,14,0,2,24,0,3,18,0,5,21,0,9,14,0,5,21,0,9,14,0,0,26,0,0,18,0,0,26,0,0,18,0,3,23,0,8,15,0,5,21,0,9,14,0,17,1,8,12,4,10
2017-06-28T23:59:36Z,18,25,21,16,25,18,21,16,1,8,0,0,0,0,0,0,0,25,0,18,0,25,0,18,0,0,0,0,0,0,0,0,2,22,1,3,15,8,3,22,0,4,17,0,4,21,0,9,14,0,3,22,0,4,17,0,4,21,0,9,14,0,4,21,0,9,14,0,4,21,0,9,14,0,2,23,0,3,18,0,4,21,0,9,14,0,4,21,0,9,14,0,0,25,0,0,18,0,0,25,0,0,18,0,3,22,0,8,15,0,4,21,0,9,14,0,17,1,7,12,4,10
2017-06-29T23:59:37Z,18,25,21,16,25,18,20,15,1,8,0,0,0,0,0,0,0,25,0,18,0,25,0,18,0,0,0,0,0,0,0,0,2,22,1,3,15,8,3,22,0,4,17,0,4,21,0,9,14,0,3,22,0,4,17,0,4,21,0,9,14,0,4,21,0,9,14,0,4,21,0,9,14,0,2,23,0,3,18,0,4,21,0,9,14,0,4,21,0,9,14,0,0,25,0,0,18,0,0,25,0,0,18,0,3,22,0,8,15,0,4,21,0,9,14,0,17,1,7,12,4,10
2017-06-30T23:59:40Z,18,26,22,16,26,18,21,16,1,8,0,0,0,0,0,0,0,26,0,18,0,26,0,18,0,0,0,0,0,0,0,0,2,23,1,3,15,8,4,22,0,4,17,0,5,21,0,9,14,0,4,22,0,4,17,0,5,21,0,9,14,0,5,21,0,9,14,0,5,21,0,9,14,0,2,24,0,3,18,0,5,21,0,9,14,0,5,21,0,9,14,0,0,26,0,0,18,0,0,26,0,0,18,0,3,23,0,8,15,0,5,21,0,9,14,0,17,1,8,12,4,10
2017-07-01T23:59:39Z,18,25,21,16,25,18,20,15,1,8,0,0,0,0,0,0,0,25,0,18,0,25,0,18,0,0,0,0,0,0,0,0,2,22,1,3,15,8,3,22,0,4,17,0,4,21,0,9,14,0,3,22,0,4,17,0,4,21,0,9,14,0,4,21,0,9,14,0,4,21,0,9,14,0,2,23,0,3,18,0,4,21,0,9,14,0,4,21,0,9,14,0,0,25,0,0,18,0,0,25,0,0,18,0,3,22,0,8,15,0,4,21,0,9,14,0,17,1,7,12,4,10
2017-07-02T23:59:39Z,18,25,21,16,25,18,20,15,1,8,0,0,0,0,0,0,0,25,0,18,0,25,0,18,0,0,0,0,0,0,0,0,2,22,1,3,15,8,3,22,0,4,17,0,4,21,0,9,14,0,3,22,0,4,17,0,4,21,0,9,14,0,4,21,0,9,14,0,4,21,0,9,14,0,2,23,0,3,18,0,4,21,0,9,14,0,4,21,0,9,14,0,0,25,0,0,18,0,0,25,0,0,18,0,3,22,0,8,15,0,4,21,0,9,14,0,17,1,7,12,4,10
2017-07-03T23:59:37Z,18,26,22,16,26,18,20,16,1,8,0,0,0,0,0,0,0,26,0,18,0,26,0,18,0,0,0,0,0,0,0,0,2,23,1,3,15,8,4,22,0,4,17,0,5,21,0,9,14,0,4,22,0,4,17,0,5,21,0,9,14,0,5,21,0,9,14,0,5,21,0,9,14,0,2,24,0,3,18,0,5,21,0,9,14,0,5,21,0,9,14,0,0,26,0,0,18,0,0,26,0,0,18,0,3,23,0,8,15,0,5,21,0,9,14,0,17,1,8,12,4,10
2017-07-04T23:59:39Z,18,25,21,16,25,18,20,15,1,8,0,0,0,0,0,0,0,25,0,18,0,25,0,18,0,0,0,0,0,0,0,0,2,22,1,3,15,8,3,22,0,4,17,0,4,21,0,9,14,0,3,22,0,4,17,0,4,21,0,9,14,0,4,21,0,9,14,0,4,21,0,9,14,0,2,23,0,3,18,0,4,21,0,9,14,0,4,21,0,9,14,0,0,25,0,0,18,0,0,25,0,0,18,0,3,22,0,8,15,0,4,21,0,9,14,0,17,1,7,12,4,10
2017-07-05T23:59:39Z,18,27,23,16,27,18,23,16,1,8,0,0,0,0,0,0,0,27,0,18,0,27,0,18,0,0,0,0,0,0,0,0,2,24,1,3,15,8,3,24,0,4,17,0,4,23,0,9,14,0,3,24,0,4,17,0,4,23,0,9,14,0,4,23,0,9,14,0,4,23,0,9,14,0,2,25,0,3,18,0,4,23,0,9,14,0,4,23,0,9,14,0,0,27,0,0,18,0,0,27,0,0,18,0,3,24,0,8,15,0,4,23,0,9,14,0,17,1,9,12,4,10
2017-07-06T23:59:40Z,19,29,25,17,29,19,24,16,1,7,0,0,0,0,0,0,0,29,0,19,0,29,0,19,0,0,0,0,0,0,0,0,2,26,1,3,16,7,5,24,0,5,17,0,6,23,0,9,14,0,5,24,0,5,17,0,6,23,0,9,14,0,6,23,0,9,14,0,6,23,0,9,14,0,2,27,0,3,19,0,6,23,0,9,14,0,6,23,0,9,14,0,0,29,0,0,19,0,0,29,0,0,19,0,3,26,0,7,16,0,6,23,0,9,14,0,17,1,11,12,5,11
2017-07-07T23:59:42Z,19,30,26,17,30,19,26,17,1,7,0,0,0,0,0,0,0,30,0,19,0,30,0,19,0,0,0,0,0,0,0,0,2,27,1,3,16,7,5,25,0,5,17,0,6,24,0,9,14,0,5,25,0,5,17,0,6,24,0,9,14,0,6,24,0,9,14,0,6,24,0,9,14,0,2,28,0,3,19,0,6,24,0,9,14,0,6,24,0,9,14,0,0,30,0,0,19,0,0,30,0,0,19,0,3,27,0,7,16,0,6,24,0,9,14,0,17,1,12,12,5,11
2017-07-08T23:59:41Z,19,30,26,17,30,19,25,16,2,7,0,0,0,0,0,0,0,30,0,19,0,30,0,19,0,0,0,0,0,0,0,0,2,26,2,3,16,7,5,25,0,5,17,0,7,23,0,9,14,0,5,25,0,5,17,0,7,23,0,9,14,0,7,23,0,9,14,0,7,23,0,9,14,0,2,28,0,3,19,0,7,23,0,9,14,0,7,23,0,9,14,0,0,30,0,0,19,0,0,30,0,0,19,0,4,26,0,7,16,0,7,23,0,9,14,0,17,2,11,12,5,11
2017-07-09T23:59:43Z,19,30,26,17,28,19,24,16,1,7,0,0,0,0,0,0,0,30,0,19,0,30,0,19,0,0,0,0,0,0,0,0,2,27,1,3,16,7,6,24,0,5,17,0,7,23,0,9,14,0,6,24,0,5,17,0,7,23,0,9,14,0,7,23,0,9,14,0,7,23,0,9,14,0,2,28,0,3,19,0,7,23,0,9,14,0,7,23,0,9,14,0,0,30,0,0,19,0,0,30,0,0,19,0,3,27,0,7,16,0,7,23,0,9,14,0,17,1,12,12,5,11
2017-07-10T23:59:41Z,19,29,25,17,29,19,24,16,1,7,0,0,0,0,0,0,0,29,0,19,0,29,0,19,0,0,0,0,0,0,0,0,2,26,1,3,16,7,5,24,0,5,17,0,6,23,0,9,14,0,5,24,0,5,17,0,6,23,0,9,14,0,6,23,0,9,14,0,6,23,0,9,14,0,2,27,0,3,19,0,6,23,0,9,14,0,6,23,0,9,14,0,0,29,0,0,19,0,0,29,0,0,19,0,3,26,0,7,16,0,6,23,0,9,14,1,17,1,11,12,5,11
2017-07-11T23:59:42Z,19,30,26,17,30,19,25,17,1,7,0,0,0,0,0,0,0,30,0,19,0,30,0,19,0,0,0,0,0,0,0,0,2,27,1,3,16,7,5,25,0,5,17,0,6,24,0,9,14,0,5,25,0,5,17,0,6,24,0,9,14,0,6,24,0,9,14,0,6,24,0,9,14,0,2,28,0,3,19,0,6,24,0,9,14,0,6,24,0,9,14,0,0,30,0,0,19,0,0,30,0,0,19,0,3,27,0,7,16,0,6,24,0,9,14,0,18,1,11,12,5,11
2017-07-12T23:59:42Z,19,31,27,17,31,19,26,17,2,7,0,0,0,0,0,0,0,31,0,19,0,31,0,19,0,0,0,0,0,0,0,0,2,27,2,2,16,7,6,25,0,4,17,0,8,23,0,9,14,0,6,25,0,4,17,0,8,23,0,9,14,0,8,23,0,9,14,0,8,23,0,9,14,0,2,29,0,2,19,0,8,23,0,9,14,0,8,23,0,9,14,0,0,31,0,0,19,0,0,31,0,0,19,0,4,27,0,7,16,0,8,23,0,9,14,0,17,2,12,12,5,11
2017-07-13T23:59:43Z,19,30,26,17,30,19,26,17,2,7,0,0,0,0,0,0,0,30,0,19,0,30,0,19,0,0,0,0,0,0,0,0,2,26,2,2,16,7,5,25,0,4,17,0,7,23,0,9,14,0,5,25,0,4,17,0,7,23,0,9,14,0,7,23,0,9,14,0,7,23,0,9,14,0,2,28,0,2,19,0,7,23,0,9,14,0,7,23,0,9,14,0,0,30,0,0,19,0,0,30,0,0,19,0,4,26,0,7,16,0,7,23,0,9,14,0,17,2,11,12,5,11
2017-07-14T23:59:42Z,19,29,25,17,29,19,24,17,1,7,0,0,0,0,0,0,0,29,0,19,0,29,0,19,0,0,0,0,0,0,0,0,2,26,1,2,16,7,5,24,0,4,17,0,6,23,0,9,14,0,5,24,0,4,17,0,6,23,0,9,14,0,6,23,0,9,14,0,6,23,0,9,14,0,2,27,0,2,19,0,6,23,0,9,14,0,6,23,0,9,14,0,0,29,0,0,19,0,0,29,0,0,19,0,3,26,0,7,16,0,6,23,0,9,14,0,17,1,11,12,5,11
2017-07-15T23:59:41Z,19,30,26,17,30,19,26,17,1,7,0,0,0,0,0,0,0,30,0,19,0,30,0,19,0,0,0,0,0,0,0,0,2,27,1,2,16,7,6,24,0,4,17,0,7,23,0,9,14,0,6,24,0,4,17,0,7,23,0,9,14,0,7,23,0,9,14,0,7,23,0,9,14,0,2,28,0,2,19,0,7,23,0,9,14,0,7,23,0,9,14,0,0,30,0,0,19,0,0,30,0,0,19,0,3,27,0,7,16,0,7,23,0,9,14,0,17,1,12,12,5,11
2017-07-16T23:59:39Z,19,29,25,17,29,19,24,17,1,7,0,0,0,0,0,0,0,29,0,19,0,29,0,19,0,0,0,0,0,0,0,0,2,26,1,2,16,7,5,24,0,4,17,0,6,23,0,9,14,0,5,24,0,4,17,0,6,23,0,9,14,0,6,23,0,9,14,0,6,23,0,9,14,0,2,27,0,2,19,0,6,23,0,9,14,0,6,23,0,9,14,0,0,29,0,0,19,0,0,29,0,0,19,0,3,26,0,7,16,0,6,23,0,9,14,0,17,1,11,12,5,11
2017-07-17T23:59:39Z,18,27,23,16,27,18,22,15,1,7,0,0,0,0,0,0,0,27,0,18,0,27,0,18,0,0,0,0,0,0,0,0,2,24,1,2,15,7,3,24,0,3,17,0,4,23,0,8,14,0,3,24,0,3,17,0,4,23,0,8,14,0,4,23,0,8,14,0,4,23,0,8,14,0,2,25,0,2,18,0,4,23,0,8,14,0,4,23,0,8,14,0,0,27,0,0,18,0,0,27,0,0,18,0,3,24,0,7,15,0,4,23,0,8,14,0,17,1,9,12,4,10
2017-07-18T23:59:38Z,18,28,24,16,28,18,24,16,1,7,0,0,0,0,0,0,0,28,0,18,0,28,0,18,0,0,0,0,0,0,0,0,2,25,1,2,15,7,4,24,0,3,17,0,5,23,0,8,14,0,4,24,0,3,17,0,5,23,0,8,14,0,5,23,0,8,14,0,5,23,0,8,14,0,2,26,0,2,18,0,5,23,0,8,14,0,5,23,0,8,14,0,0,28,0,0,18,0,0,28,0,0,18,0,3,25,0,7,15,0,5,23,0,8,14,0,17,1,10,12,4,10
2017-07-19T23:59:39Z,18,27,23,16,27,18,22,15,1,7,0,0,0,0,0,0,0,27,0,18,0,27,0,18,0,0,0,0,0,0,0,0,2,24,1,2,15,7,3,24,0,3,17,0,4,23,0,8,14,0,3,24,0,3,17,0,4,23,0,8,14,0,4,23,0,8,14,0,4,23,0,8,14,0,2,25,0,2,18,0,4,23,0,8,14,0,4,23,0,8,14,0,0,27,0,0,18,0,0,27,0,0,18,0,3,24,0,7,15,0,4,23,0,8,14,0,17,1,9,12,4,10
2017-07-20T23:59:39Z,18,28,24,16,28,18,24,16,1,7,0,0,0,0,0,0,0,28,0,18,0,28,0,18,0,0,0,0,0,0,0,0,2,25,1,2,15,7,4,24,0,3,17,0,5,23,0,8,14,0,4,24,0,3,17,0,5,23,0,8,14,0,5,23,0,8,14,0,5,23,0,8,14,0,2,26,0,2,18,0,5,23,0,8,14,0,5,23,0,8,14,0,0,28,0,0,18,0,0,28,0,0,18,0,3,25,0,7,15,0,5,23,0,8,14,0,17,1,10,12,4,10
2017-07-21T23:59:42Z,18,28,24,16,28,18,23,16,1,7,0,0,0,0,0,0,0,28,0,18,0,28,0,18,0,0,0,0,0,0,0,0,2,25,1,2,15,7,3,25,0,3,17,0,4,24,0,8,14,0,3,25,0,3,17,0,4,24,0,8,14,0,4,24,0,8,14,0,4,24,0,8,14,0,2,26,0,2,18,0,4,24,0,8,14,0,4,24,0,8,14,0,0,28,0,0,18,0,0,28,0,0,18,0,3,25,0,7,15,0,4,24,0,8,14,0,18,1,9,12,4,10
2017-07-22T23:59:40Z,18,27,23,16,27,18,22,15,1,7,0,0,0,0,0,0,0,27,0,18,0,27,0,18,0,0,0,0,0,0,0,0,2,24,1,2,15,7,3,24,0,3,17,0,4,23,0,8,14,0,3,24,0,3,17,0,4,23,0,8,14,0,4,23,0,8,14,0,4,23,0,8,14,0,2,25,0,2,18,0,4,23,0,8,14,0,4,23,0,8,14,0,0,27,0,0,18,0,0,27,0,0,18,0,3,24,0,7,15,0,4,23,0,8,14,0,17,1,9,12,4,10
2017-07-23T23:59:41Z,18,29,25,16,29,18,25,16,1,7,0,0,0,0,0,0,0,29,0,18,0,29,0,18,0,0,0,0,0,0,0,0,2,26,1,2,15,7,5,24,0,3,17,0,6,23,0,8,14,0,5,24,0,3,17,0,6,23,0,8,14,0,6,23,0,8,14,0,6,23,0,8,14,0,2,27,0,2,18,0,6,23,0,8,14,0,6,23,0,8,14,0,0,29,0,0,18,0,0,29,0,0,18,0,3,26,0,7,15,0,6,23,0,8,14,0,17,1,11,12,4,10
2017-07-24T23:59:39Z,18,27,23,16,27,18,23,16,1,7,0,0,0,0,0,0,0,27,0,18,0,27,0,18,0,0,0,0,0,0,0,0,2,24,1,2,15,7,3,24,0,3,17,0,4,23,0,8,14,0,3,24,0,3,17,0,4,23,0,8,14,0,4,23,0,8,14,0,4,23,0,8,14,0,2,25,0,2,18,0,4,23,0,8,14,0,4,23,0,8,14,0,0,27,0,0,18,0,0,27,0,0,18,0,3,24,0,7,15,0,4,23,0,8,14,0,17,1,9,12,4,10
2017-07-25T23:59:40Z,18,28,24,16,28,18,24,16,1,7,0,0,0,0,0,0,0,28,0,18,0,28,0,18,0,0,0,0,0,0,0,0,2,25,1,2,15,7,3,25,0,3,17,0,4,24,0,8,14,0,3,25,0,3,17,0,4,24,0,8,14,0,4,24,0,8,14,0,4,24,0,8,14,0,2,26,0,2,18,0,4,24,0,8,14,0,4,24,0,8,14,0,0,28,0,0,18,0,0,28,0,0,18,0,3,25,0,7,15,0,4,24,0,8,14,0,17,1,10,12,4,10
2017-07-26T23:59:39Z,19,29,25,17,29,19,24,16,1,7,0,0,0,0,0,0,0,29,0,19,0,29,0,19,0,0,0,0,0,0,0,0,3,25,1,3,15,7,5,24,0,4,17,0,6,23,0,9,14,0,5,24,0,4,17,0,6,23,0,9,14,0,6,23,0,9,14,0,6,23,0,9,14,0,3,26,0,3,18,0,6,23,0,9,14,0,6,23,0,9,14,0,0,29,0,0,19,0,0,29,0,0,19,0,4,25,0,8,15,0,6,23,0,9,14,0,17,1,11,12,5,11
2017-07-27T23:59:39Z,19,28,24,17,28,19,23,17,1,7,0,0,0,0,0,0,0,28,0,19,0,28,0,19,0,0,0,0,0,0,0,0,3,24,1,3,15,7,4,24,0,4,17,0,5,23,0,9,14,0,4,24,0,4,17,0,5,23,0,9,14,0,5,23,0,9,14,0,5,23,0,9,14,0,3,25,0,3,18,0,5,23,0,9,14,0,5,23,0,9,14,0,0,28,0,0,19,0,0,28,0,0,19,0,4,24,0,8,15,0,5,23,0,9,14,0,17,1,10,12,5,11
2017-07-28T23:59:40Z,19,28,24,17,28,19,23,16,1,7,0,0,0,0,0,0,0,28,0,19,0,28,0,19,0,0,0,0,0,0,0,0,3,24,1,3,15,7,4,24,0,4,17,0,5,23,0,9,14,0,4,24,0,4,17,0,5,23,0,9,14,0,5,23,0,9,14,0,5,23,0,9,14,0,3,25,0,3,18,0,5,23,0,9,14,0,5,23,0,9,14,0,0,28,0,0,19,0,0,28,0,0,19,0,4,24,0,8,15,0,5,23,0,9,14,0,17,1,10,12,5,11
2017-07-29T23:59:40Z,19,29,25,17,29,19,24,16,1,7,0,0,0,0,0,0,0,29,0,19,0,29,0,19,0,0,0,0,0,0,0,0,3,25,1,3,15,7,5,24,0,4,17,0,6,23,0,9,14,0,5,24,0,4,17,0,6,23,0,9,14,0,6,23,0,9,14,0,6,23,0,9,14,0,3,26,0,3,18,0,6,23,0,9,14,0,6,23,0,9,14,0,0,29,0,0,19,0,0,29,0,0,19,0,4,25,0,8,15,0,6,23,0,9,14,0,17,1,11,12,5,11
2017-07-30T23:59:38Z,19,28,24,17,28,19,23,16,1,7,0,0,0,0,0,0,0,28,0,19,0,28,0,19,0,0,0,0,0,0,0,0,3,24,1,3,15,7,4,24,0,4,17,0,5,23,0,9,14,0,4,24,0,4,17,0,5,23,0,9,14,0,5,23,0,9,14,0,5,23,0,9,14,0,3,25,0,3,18,0,5,23,0,9,14,0,5,23,0,9,14,0,0,28,0,0,19,0,0,28,0,0,19,0,4,24,0,8,15,0,5,23,0,9,14,0,17,1,10,12,5,11
2017-07-31T23:59:38Z,19,28,24,17,27,19,23,16,1,7,0,0,0,0,0,0,0,28,1,19,0,28,0,19,0,0,0,0,0,0,0,0,3,24,1,3,15,7,4,24,0,4,17,0,5,23,0,9,14,0,4,24,0,4,17,0,5,23,0,9,14,0,5,23,0,9,14,0,5,23,0,9,14,0,3,25,0,3,18,0,5,23,0,9,14,0,5,23,0,9,14,0,0,28,0,0,19,0,0,28,0,0,19,0,4,24,0,8,15,0,5,23,0,9,14,0,17,1,10,12,5,11
2017-08-01T23:59:39Z,19,30,27,17,29,19,27,17,1,7,0,0,0,0,0,0,0,30,0,19,0,30,0,19,0,0,0,0,0,0,0,0,3,26,1,3,15,7,8,22,0,5,16,0,9,21,0,10,13,0,8,22,0,5,16,0,9,21,0,10,13,0,9,21,0,10,13,0,9,21,0,10,13,0,3,27,0,3,18,0,9,21,0,10,13,0,9,21,0,10,13,0,0,30,0,0,19,0,0,30,0,0,19,0,4,26,0,8,15,0,9,21,0,10,13,0,17,1,12,12,5,11
2017-08-02T23:59:41Z,19,27,24,17,27,19,23,17,1,7,0,0,0,0,0,0,0,27,0,19,0,27,0,19,0,0,0,0,0,0,0,0,3,23,1,3,15,7,5,22,0,5,16,0,6,21,0,10,13,0,5,22,0,5,16,0,6,21,0,10,13,0,6,21,0,10,13,0,6,21,0,10,13,0,3,24,0,3,18,0,6,21,0,10,13,0,6,21,0,10,13,0,0,27,0,0,19,0,0,27,0,0,19,0,4,23,0,8,15,0,6,21,0,10,13,0,16,1,10,12,5,11
2017-08-03T23:59:42Z,19,27,24,17,27,19,23,16,1,7,0,0,0,0,0,0,0,27,0,19,0,27,0,19,0,0,0,0,0,0,0,0,3,23,1,3,15,7,5,22,0,5,16,0,6,21,0,10,13,0,5,22,0,5,16,0,6,21,0,10,13,0,6,21,0,10,13,0,6,21,0,10,13,0,3,24,0,3,18,0,6,21,0,10,13,0,6,21,0,10,13,0,0,27,0,0,19,0,0,27,0,0,19,0,4,23,0,8,15,1,5,21,1,9,13,1,16,1,10,12,5,11
2017-08-04T23:59:38Z,19,28,25,17,28,19,24,17,1,6,0,0,0,0,0,0,0,28,0,19,0,28,0,19,0,0,0,0,0,0,0,0,3,24,1,3,15,6,6,22,0,5,15,0,7,21,0,10,13,0,6,22,0,5,15,0,7,21,0,10,13,0,7,21,0,10,13,0,7,21,0,10,13,0,3,25,0,3,17,0,7,21,0,10,13,0,7,21,0,10,13,0,0,28,0,0,19,0,0,28,0,0,19,0,4,24,0,8,15,0,7,21,0,10,13,0,16,1,11,12,5,11
2017-08-05T23:59:39Z,19,27,24,17,27,19,24,17,1,6,0,0,0,0,0,0,0,27,0,19,0,27,0,19,0,0,0,0,0,0,0,0,3,23,1,3,15,6,5,22,0,5,15,0,6,21,0,10,13,0,5,22,0,5,15,0,6,21,0,10,13,0,6,21,0,10,13,0,6,21,0,10,13,0,3,24,0,3,17,0,6,21,0,10,13,0,6,21,0,10,13,0,0,27,0,0,19,0,0,27,0,0,19,0,4,23,0,8,15,0,6,21,0,10,13,0,16,1,10,12,5,11
2017-08-06T23:59:39Z,19,29,26,17,29,19,26,17,1,6,0,0,0,0,0,0,0,29,0,19,0,29,0,19,0,0,0,0,0,0,0,0,3,25,1,3,15,6,5,24,0,5,15,0,6,23,0,10,13,0,5,24,0,5,15,0,6,23,0,10,13,0,6,23,0,10,13,0,6,23,0,10,13,0,3,26,0,3,17,0,6,23,0,10,13,0,6,23,0,10,13,0,0,29,0,0,19,0,0,29,0,0,19,0,4,25,0,8,15,0,6,23,0,10,13,0,17,1,11,12,5,11
2017-08-07T23:59:40Z,19,29,26,17,29,19,26,17,1,6,0,0,0,0,0,0,0,29,0,19,0,29,0,19,0,0,0,0,0,0,0,0,3,25,1,3,15,6,6,23,0,5,15,0,7,22,0,10,13,0,6,23,0,5,15,0,7,22,0,10,13,0,7,22,0,10,13,0,7,22,0,10,13,0,3,26,0,3,17,0,7,22,0,10,13,0,7,22,0,10,13,0,0,29,0,0,19,0,0,29,0,0,19,0,4,25,0,8,15,0,7,22,0,10,13,0,17,1,11,12,5,11
2017-08-08T23:59:39Z,19,29,26,17,29,19,25,17,1,6,0,0,0,0,0,0,0,29,0,19,0,29,0,19,0,0,0,0,0,0,0,0,3,25,1,3,15,6,6,23,0,5,15,0,7,22,0,10,13,0,6,23,0,5,15,0,7,22,0,10,13,0,7,22,0,10,13,0,7,22,0,10,13,0,3,26,0,3,17,0,7,22,0,10,13,0,7,22,0,10,13,0,0,29,0,0,19,0,0,29,0,0,19,0,4,25,0,8,15,0,7,22,0,10,13,0,17,1,11,12,5,11
2017-08-09T23:59:40Z,19,29,26,17,29,19,25,17,1,6,0,0,0,0,0,0,0,29,0,19,0,29,0,19,0,0,0,0,0,0,0,0,3,25,1,3,15,6,6,23,0,5,15,0,7,22,0,10,13,0,6,23,0,5,15,0,7,22,0,10,13,0,7,22,0,10,13,0,7,22,0,10,13,0,3,26,0,3,17,0,7,22,0,10,13,0,7,22,0,10,13,0,0,29,0,0,19,0,0,29,0,0,19,0,4,25,0,8,15,0,7,22,0,10,13,0,17,1,11,12,5,11
2017-08-10T23:59:39Z,18,27,24,16,27,18,24,16,1,6,0,0,0,0,0,0,0,27,0,18,0,27,0,18,0,0,0,0,0,0,0,0,2,24,1,2,15,6,4,23,0,4,15,0,5,22,0,9,13,0,4,23,0,4,15,0,5,22,0,9,13,0,5,22,0,9,13,0,5,22,0,9,13,0,2,25,0,2,17,0,5,22,0,9,13,0,5,22,0,9,13,0,0,27,0,0,18,0,0,27,0,0,18,0,3,24,0,7,15,0,5,22,0,9,13,0,17,1,9,12,4,10
2017-08-11T23:59:41Z,19,28,25,17,28,19,24,16,1,6,0,0,0,0,0,0,0,28,0,19,0,28,0,19,0,0,0,0,0,0,0,0,3,24,1,3,15,6,5,23,0,5,15,0,6,22,0,10,13,0,5,23,0,5,15,0,6,22,0,10,13,0,6,22,0,10,13,0,6,22,0,10,13,0,3,25,0,3,17,0,6,22,0,10,13,0,6,22,0,10,13,0,0,28,0,0,19,0,0,28,0,0,19,0,4,24,0,8,15,0,6,22,0,10,13,0,17,1,10,12,5,11
2017-08-12T23:59:38Z,19,30,27,17,30,19,27,17,1,6,0,0,0,0,0,0,0,30,0,19,0,30,0,19,0,0,0,0,0,0,0,0,3,26,1,3,15,6,6,24,0,5,15,0,7,23,0,10,13,0,6,24,0,5,15,0,7,23,0,10,13,0,7,23,0,10,13,0,7,23,0,10,13,0,3,27,0,3,17,0,7,23,0,10,13,0,7,23,0,10,13,0,0,30,0,0,19,0,0,30,0,0,19,0,4,26,0,8,15,0,7,23,0,10,13,0,17,1,12,12,5,11
2017-08-13T23:59:40Z,19,28,25,17,28,19,25,17,1,6,0,0,0,0,0,0,0,28,0,19,0,28,0,19,0,0,0,0,0,0,0,0,3,24,1,3,15,6,5,23,0,5,15,0,6,22,0,10,13,0,5,23,0,5,15,0,6,22,0,10,13,0,6,22,0,10,13,0,6,22,0,10,13,0,3,25,0,3,17,0,6,22,0,10,13,0,6,22,0,10,13,0,0,28,0,0,19,0,0,28,0,0,19,0,4,24,0,8,15,0,6,22,0,10,13,0,17,1,10,12,5,11
2017-08-14T23:59:40Z,21,31,27,19,31,21,26,19,1,6,0,0,0,0,0,0,0,31,0,21,0,31,0,21,0,0,0,0,0,0,0,0,3,27,1,3,17,6,5,26,0,5,17,0,6,25,0,10,15,0,5,26,0,5,17,0,6,25,0,10,15,0,6,25,0,10,15,0,6,25,0,10,15,0,3,28,0,3,19,0,6,25,0,10,15,0,6,25,0,10,15,0,0,31,0,0,21,0,0,31,0,0,21,0,4,27,0,8,17,0,6,25,0,10,15,0,20,1,10,14,5,11
2017-08-15T23:59:38Z,21,33,29,19,33,21,29,19,1,6,0,0,0,0,0,0,0,33,0,21,0,33,0,21,0,0,0,0,0,0,0,0,3,29,1,3,17,6,6,27,0,5,17,0,7,26,0,10,15,0,6,27,0,5,17,0,7,26,0,10,15,0,7,26,0,10,15,0,7,26,0,10,15,0,3,30,0,3,19,0,7,26,0,10,15,0,7,26,0,10,15,0,0,33,0,0,21,0,0,33,0,0,21,0,4,29,0,8,17,0,7,26,0,10,15,0,20,1,12,14,5,11
2017-08-16T23:59:38Z,21,31,27,19,31,21,27,19,1,6,0,0,0,0,0,0,0,31,0,21,0,31,0,21,0,0,0,0,0,0,0,0,3,27,1,3,17,6,5,26,0,5,17,0,6,25,0,10,15,0,5,26,0,5,17,0,6,25,0,10,15,0,6,25,0,10,15,0,6,25,0,10,15,0,3,28,0,3,19,0,6,25,0,10,15,0,6,25,0,10,15,0,0,31,0,0,21,0,0,31,0,0,21,0,4,27,0,8,17,0,6,25,0,10,15,0,20,1,10,14,5,11
2017-08-17T23:59:39Z,20,31,27,18,31,20,25,16,1,6,0,0,0,0,0,0,0,31,0,20,0,31,0,20,0,0,0,0,0,0,0,0,3,27,1,3,16,6,5,26,0,5,16,0,6,25,0,10,14,0,5,26,0,5,16,0,6,25,0,10,14,0,6,25,0,10,14,0,6,25,0,10,14,0,3,28,0,3,18,0,6,25,0,10,14,0,6,25,0,10,14,0,0,31,0,0,20,0,0,31,0,0,20,0,4,27,0,8,16,0,6,25,0,10,14,0,19,1,11,13,5,11
2017-08-18T23:59:40Z,21,31,27,19,31,21,25,17,1,6,0,0,0,0,0,0,0,31,0,21,0,31,0,21,0,0,0,0,0,0,0,0,3,27,1,3,17,6,5,26,0,5,17,0,6,25,0,10,15,0,5,26,0,5,17,0,6,25,0,10,15,0,6,25,0,10,15,0,6,25,0,10,15,0,3,28,0,3,19,0,6,25,0,10,15,0,6,25,0,10,15,0,0,31,0,0,21,0,0,31,0,0,21,0,4,27,0,8,17,0,6,25,0,10,15,0,20,1,10,14,5,11
2017-08-19T23:59:41Z,21,31,27,19,31,21,26,18,1,6,0,0,0,0,0,0,0,31,0,21,0,31,0,21,0,0,0,0,0,0,0,0,3,27,1,3,17,6,5,26,0,5,17,0,6,25,0,10,15,0,5,26,0,5,17,0,6,25,0,10,15,0,6,25,0,10,15,0,6,25,0,10,15,0,3,28,0,3,19,0,6,25,0,10,15,0,6,25,0,10,15,0,0,31,0,0,21,0,0,31,0,0,21,0,4,27,0,8,17,0,6,25,0,10,15,0,20,1,10,14,5,11
2017-08-20T23:59:41Z,21,30,26,19,30,21,24,18,1,6,0,0,0,0,0,0,0,30,0,21,0,30,0,21,0,0,0,0,0,0,0,0,3,26,1,3,17,6,5,25,0,5,17,0,6,24,0,10,15,0,5,25,0,5,17,0,6,24,0,10,15,0,6,24,0,10,15,0,6,24,0,10,15,0,3,27,0,3,19,0,6,24,0,10,15,0,6,24,0,10,15,0,0,30,0,0,21,0,0,30,0,0,21,0,4,26,0,8,17,0,6,24,0,10,15,0,20,1,9,14,5,11
2017-08-21T23:59:38Z,21,30,26,19,30,21,25,18,1,6,0,0,0,0,0,0,0,30,0,21,0,30,0,21,0,0,0,0,0,0,0,0,3,26,1,3,17,6,5,25,0,5,17,0,6,24,0,10,15,0,5,25,0,5,17,0,6,24,0,10,15,0,6,24,0,10,15,0,6,24,0,10,15,0,3,27,0,3,19,0,6,24,0,10,15,0,6,24,0,10,15,0,0,30,0,0,21,0,0,30,0,0,21,0,4,26,0,8,17,0,6,24,0,10,15,0,20,1,9,14,5,11
2017-08-22T23:59:40Z,21,31,27,19,31,21,25,17,2,6,0,0,0,0,0,0,0,31,0,21,0,31,0,21,0,0,0,0,0,0,0,0,3,26,2,3,17,6,5,26,0,5,17,0,7,24,0,10,15,0,5,26,0,5,17,0,7,24,0,10,15,0,7,24,0,10,15,0,7,24,0,10,15,0,3,28,0,3,19,0,7,24,0,10,15,0,7,24,0,10,15,0,0,31,0,0,21,0,0,31,0,0,21,0,5,26,0,8,17,0,7,24,0,10,15,0,20,2,9,14,5,11
2017-08-23T23:59:59Z,22,31,27,20,31,22,25,18,1,5,0,0,0,0,0,0,0,31,0,22,0,31,0,22,0,0,0,0,0,0,0,0,3,27,1,3,18,5,5,26,0,5,17,0,6,25,0,10,16,0,5,26,0,5,17,0,6,25,0,10,16,0,6,25,0,10,16,0,6,25,0,10,16,0,3,28,0,3,19,0,6,25,0,10,16,0,6,25,0,10,16,0,0,31,0,0,22,0,0,31,0,0,22,0,4,27,0,8,18,0,6,25,0,10,16,0,21,1,9,15,5,10
2017-08-24T23:59:41Z,22,31,27,20,31,22,26,19,1,6,0,0,0,0,0,0,0,31,0,22,0,31,0,22,0,0,0,0,0,0,0,0,3,27,1,3,18,6,5,26,0,5,18,0,6,25,0,10,16,0,5,26,0,5,18,0,6,25,0,10,16,0,6,25,0,10,16,0,6,25,0,10,16,0,3,28,0,3,20,0,6,25,0,10,16,0,6,25,0,10,16,0,0,31,0,0,22,0,0,31,0,0,22,0,4,27,0,8,18,0,6,25,0,10,16,0,21,1,9,15,5,11
2017-08-25T23:59:39Z,21,30,26,19,30,21,26,19,1,6,0,0,0,0,0,0,0,30,0,21,0,30,0,21,0,0,0,0,0,0,0,0,3,26,1,3,17,6,4,26,0,4,18,0,5,25,0,9,16,0,4,26,0,4,18,0,5,25,0,9,16,0,5,25,0,9,16,0,5,25,0,9,16,0,3,27,0,3,19,0,5,25,0,9,16,0,5,25,0,9,16,0,0,30,0,0,21,0,0,30,0,0,21,0,4,26,0,8,17,0,5,25,0,9,16,0,21,1,8,15,4,10
2017-08-26T23:59:41Z,21,30,26,19,30,21,25,19,1,6,0,0,0,0,0,0,0,30,0,21,0,30,0,21,0,0,0,0,0,0,0,0,3,26,1,3,17,6,4,26,0,4,18,0,5,25,0,9,16,0,4,26,0,4,18,0,5,25,0,9,16,0,5,25,0,9,16,0,5,25,0,9,16,0,3,27,0,3,19,0,5,25,0,9,16,0,5,25,0,9,16,0,0,30,0,0,21,0,0,30,0,0,21,0,4,26,0,8,17,0,5,25,0,9,16,0,21,1,8,15,4,10
2017-08-27T23:59:41Z,21,30,26,19,30,21,26,19,1,6,0,0,0,0,0,0,0,30,0,21,0,30,0,21,0,0,0,0,0,0,0,0,3,26,1,3,17,6,4,26,0,4,18,0,5,25,0,9,16,0,4,26,0,4,18,0,5,25,0,9,16,0,5,25,0,9,16,0,5,25,0,9,16,0,3,27,0,3,19,0,5,25,0,9,16,0,5,25,0,9,16,0,0,30,0,0,21,0,0,30,0,0,21,0,4,26,0,8,17,0,5,25,0,9,16,0,21,1,8,15,4,10
2017-08-28T23:59:41Z,21,30,26,19,30,21,26,19,1,6,0,0,0,0,0,0,0,30,0,21,0,30,0,21,0,0,0,0,0,0,0,0,3,26,1,3,17,6,4,26,0,4,18,0,5,25,0,9,16,0,4,26,0,4,18,0,5,25,0,9,16,0,5,25,0,9,16,0,5,25,0,9,16,0,3,27,0,3,19,0,5,25,0,9,16,0,5,25,0,9,16,0,0,30,0,0,21,0,0,30,0,0,21,0,4,26,0,8,17,0,5,25,0,9,16,0,21,1,8,15,4,10